Henderson, MN (56044)

1:50 AM CST on February 10, 2016 (GMT -0600)
MesoWest | | Change Station
CLOSE
Current Station
Personal Weather Station
Location: Henderson, MN
Elevation: 724 ft
Nearby Weather Stations

Elev 724 ft 44.58 °N, 93.89 °W | Updated 3 hours ago

Mostly Cloudy
Mostly Cloudy
9.0 °F
Feels Like 9.0 °F
N
0.0
Wind Variable Wind from North
Gusts 0.0 mph

Today
High -- | Low -- °F
--% Chance of Precip.
Yesterday
High -- | Low -- °F
Precip. -- in
Pressure 30.13 in
Visibility 10.0 miles
Clouds Clear
Dew Point Not available.
Humidity Not available.
Rainfall in
Snow Depth Not available.
7:23 AM 5:36 PM
Waxing Crescent, 4% visible
METAR KGYL 100735Z AUTO 00000KT 10SM CLR M15/M17 A3013 RMK AO2 T11501172
Pressure 30.13 in
Visibility 10.0 miles
Clouds Clear
Dew Point Not available.
Humidity Not available.
Rainfall in
Snow Depth Not available.
7:23 AM 5:36 PM
Waxing Crescent, 4% visible
METAR KGYL 100735Z AUTO 00000KT 10SM CLR M15/M17 A3013 RMK AO2 T11501172

10-Day Weather Forecast

Almanac

Astronomy

Feb. 10, 2016 Rise Set
Actual Time
Civil Twilight
Nautical Twilight
Astronomical Twilight
Moon
Length of Visible Light
Length of Day
Tomorrow will be .
, % of the Moon is Illuminated

Today's Extremes

State Highs State Lows

Community

WunderPhotos

Upload Photos

1,891,826 photos uploaded!

WunderBlog® & News

Nearby

Air Quality

  Air Quality AQ Index Pollutant
Not available.

Snow Depth

Station Depth Elevation

Earthquake Activity

City Distance Mag. Time & Date
Minimum magnitude displayed is 2.5.

Coastal Water Temperatures

Place Temperature

Stations

Nearby Weather Stations

Station Location Temp. Windchill Dew Point Humidity Wind Precip. Elev Updated Type
                   

Watches & Warnings

There are currently no watches in effect.